Location: Étavigny
(49.1201°N, 2.9800°E)
Time: 10:14:10
(UTC+00:00)

Cosmos 1536 Rocket - Pass Details

Date: 28 January 2023
Orbit: 604 x 630 km, 82.5° (Epoch: 23 March)

Event Time Altitude Azimuth Distance (km) Brightness Sun altitude
Rises 18:13:49 0° 182° (S) 2,848 7.1 -15.7°
Reaches altitude 10° 18:16:01 10° 180° (S) 1,949 6.2 -16.0°
Maximum altitude 18:20:18 71° 97° (E) 644 3.4 -16.7°
Drops below altitude 10° 18:24:38 10° 14° (NNE) 1,968 5.9 -17.4°
Enters shadow 18:26:31 - 12° (NNE) 2,739 6.7 -17.7°
